TimeAKST,TemperatureF,Dew PointF,Humidity,Sea Level PressureIn,VisibilityMPH,Wind Direction,Wind SpeedMPH,Gust SpeedMPH,PrecipitationIn,Events,Conditions,WindDirDegrees,DateUTC
12:53 AM,34.0,30.9,89,29.67,10.0,Calm,Calm,-,N/A,,Overcast,0,2013-01-27 09:53:00
1:53 AM,36.0,28.9,76,29.68,10.0,West,16.1,25.3,0.01,,Overcast,270,2013-01-27 10:53:00
2:57 AM,35.6,28.4,75,29.69,5.0,WSW,18.4,23.0,0.00,Snow,Light Snow,250,2013-01-27 11:57:00
3:01 AM,33.8,30.2,87,29.70,1.5,West,15.0,23.0,0.00,Snow,Light Snow,270,2013-01-27 12:01:00
3:12 AM,33.8,32.0,93,29.69,4.0,NW,10.4,-,0.00,Snow,Light Snow,310,2013-01-27 12:12:00
3:30 AM,33.8,30.2,87,29.70,9.0,West,12.7,-,0.00,Snow,Light Snow,280,2013-01-27 12:30:00
3:39 AM,33.8,30.2,87,29.70,1.8,West,13.8,21.9,0.00,Snow,Light Snow,280,2013-01-27 12:39:00
3:48 AM,33.8,32.0,93,29.70,1.8,WNW,5.8,-,0.00,Snow,Light Snow,290,2013-01-27 12:48:00
3:51 AM,33.8,32.0,93,29.70,3.0,WNW,6.9,-,0.00,Snow,Light Snow,300,2013-01-27 12:51:00
3:53 AM,33.1,32.0,96,29.70,5.0,WNW,4.6,-,0.00,Snow,Light Snow,290,2013-01-27 12:53:00
4:32 AM,35.6,28.4,75,29.70,10.0,WSW,8.1,-,0.00,Snow,Light Snow,240,2013-01-27 13:32:00
4:40 AM,33.8,30.2,87,29.71,1.8,West,13.8,18.4,0.02,Snow,Light Snow,270,2013-01-27 13:40:00
4:45 AM,33.8,30.2,87,29.71,0.8,West,13.8,23.0,0.03,Snow,Light Snow,280,2013-01-27 13:45:00
4:47 AM,33.8,30.2,87,29.71,1.0,West,13.8,23.0,0.03,Snow,Light Snow,270,2013-01-27 13:47:00
4:53 AM,33.1,30.9,92,29.71,2.5,West,9.2,-,0.03,Snow,Light Snow,280,2013-01-27 13:53:00
5:00 AM,33.8,30.2,87,29.71,9.0,West,8.1,-,0.00,Snow,Light Snow,260,2013-01-27 14:00:00
5:08 AM,33.8,30.2,87,29.72,10.0,WSW,9.2,-,0.00,Snow,Light Snow,250,2013-01-27 14:08:00
5:13 AM,33.8,30.2,87,29.72,4.0,WNW,18.4,-,0.01,Snow,Light Snow,300,2013-01-27 14:13:00
5:23 AM,33.8,30.2,87,29.72,8.0,WNW,8.1,-,0.01,Snow,Light Snow,300,2013-01-27 14:23:00
5:53 AM,32.0,28.0,85,29.72,7.0,North,3.5,-,0.01,,Overcast,360,2013-01-27 14:53:00
6:12 AM,33.8,28.4,81,29.72,10.0,West,11.5,-,N/A,,Overcast,260,2013-01-27 15:12:00
6:25 AM,33.8,28.4,81,29.72,5.0,NW,11.5,23.0,0.00,Snow,Light Snow,320,2013-01-27 15:25:00
6:53 AM,32.0,28.0,85,29.72,7.0,Calm,Calm,-,0.00,,Mostly Cloudy,0,2013-01-27 15:53:00
7:29 AM,32.0,28.4,87,29.73,2.0,WNW,17.3,23.0,0.00,Snow,Light Snow,300,2013-01-27 16:29:00
7:33 AM,32.0,28.4,87,29.73,0.8,WNW,12.7,23.0,0.00,Snow,Light Snow,290,2013-01-27 16:33:00
7:38 AM,32.0,30.2,93,29.73,0.5,West,9.2,-,0.01,Fog-Snow,Snow,270,2013-01-27 16:38:00
7:51 AM,30.2,30.2,100,29.73,2.0,West,6.9,-,0.03,Snow,Light Snow,270,2013-01-27 16:51:00
7:53 AM,32.0,30.9,96,29.73,2.0,West,6.9,-,0.03,Snow,Light Snow,270,2013-01-27 16:53:00
7:56 AM,32.0,30.2,93,29.73,5.0,West,8.1,-,0.00,Snow,Light Snow,280,2013-01-27 16:56:00
8:07 AM,33.8,30.2,87,29.73,9.0,WNW,10.4,-,0.00,,Overcast,290,2013-01-27 17:07:00
8:53 AM,34.0,28.0,79,29.74,7.0,WNW,5.8,-,0.00,,Overcast,290,2013-01-27 17:53:00
9:43 AM,33.8,30.2,87,29.76,7.0,NW,11.5,-,0.00,Snow,Light Snow,310,2013-01-27 18:43:00
9:53 AM,34.0,30.0,85,29.76,7.0,North,10.4,-,0.00,,Overcast,350,2013-01-27 18:53:00
10:39 AM,33.8,28.4,81,29.78,1.8,West,20.7,26.5,0.01,Snow,Light Snow,280,2013-01-27 19:39:00
10:43 AM,33.8,28.4,81,29.78,3.0,West,18.4,26.5,0.01,Snow,Light Snow,270,2013-01-27 19:43:00
10:53 AM,35.1,27.0,72,29.78,9.0,WNW,11.5,24.2,0.01,Snow,Light Snow,300,2013-01-27 19:53:00
11:05 AM,35.6,28.4,75,29.77,10.0,NNW,10.4,-,0.00,,Mostly Cloudy,330,2013-01-27 20:05:00
11:53 AM,36.0,27.0,70,29.78,10.0,West,11.5,-,0.00,,Overcast,280,2013-01-27 20:53:00
12:43 PM,35.6,28.4,75,29.79,3.0,NNW,15.0,-,0.00,Snow,Light Snow,330,2013-01-27 21:43:00
12:53 PM,33.1,28.9,85,29.80,5.0,WNW,13.8,-,0.00,Snow,Light Snow,290,2013-01-27 21:53:00
12:56 PM,33.8,28.4,81,29.80,0.5,WSW,18.4,23.0,0.00,Snow,Snow,250,2013-01-27 21:56:00
12:59 PM,33.8,28.4,81,29.80,4.0,WSW,17.3,23.0,0.00,Snow,Light Snow,250,2013-01-27 21:59:00
1:39 PM,35.6,28.4,75,29.80,1.5,NNW,18.4,-,0.00,Snow,Light Snow,330,2013-01-27 22:39:00
1:41 PM,33.8,30.2,87,29.81,2.0,NW,16.1,-,0.00,Snow,Light Snow,320,2013-01-27 22:41:00
1:44 PM,33.8,30.2,87,29.80,6.0,NNW,11.5,23.0,0.00,Snow,Light Snow,340,2013-01-27 22:44:00
1:46 PM,33.8,30.2,87,29.80,7.0,North,9.2,-,0.00,Snow,Light Snow,350,2013-01-27 22:46:00
1:53 PM,33.1,30.9,92,29.80,7.0,NNW,6.9,-,0.00,,Mostly Cloudy,340,2013-01-27 22:53:00
2:05 PM,33.8,30.2,87,29.80,10.0,WNW,15.0,-,N/A,,Mostly Cloudy,290,2013-01-27 23:05:00
2:36 PM,33.8,30.2,87,29.80,1.2,West,16.1,27.6,0.00,Snow,Light Snow,260,2013-01-27 23:36:00
2:43 PM,32.0,30.2,93,29.80,0.5,West,11.5,-,0.01,Fog-Snow,Snow,260,2013-01-27 23:43:00
2:50 PM,32.0,30.2,93,29.80,7.0,WNW,6.9,-,0.01,Snow,Light Snow,290,2013-01-27 23:50:00
2:53 PM,33.1,30.9,92,29.80,7.0,West,9.2,-,0.01,Snow,Light Snow,270,2013-01-27 23:53:00
3:08 PM,32.0,30.2,93,29.80,6.0,WNW,8.1,-,0.00,Snow,Light Snow,300,2013-01-28 00:08:00
3:15 PM,32.0,30.2,93,29.80,6.0,NNW,3.5,-,0.00,,Mostly Cloudy,330,2013-01-28 00:15:00
3:51 PM,32.0,30.2,93,29.80,1.8,Calm,Calm,-,0.00,Snow,Light Snow,0,2013-01-28 00:51:00
3:53 PM,32.0,30.0,92,29.80,4.0,Calm,Calm,-,0.01,Snow,Light Snow,0,2013-01-28 00:53:00
4:09 PM,33.8,30.2,87,29.80,2.0,WNW,16.1,-,0.00,Snow,Light Snow,300,2013-01-28 01:09:00
4:11 PM,33.8,30.2,87,29.80,5.0,NW,13.8,-,0.00,Snow,Light Snow,310,2013-01-28 01:11:00
4:19 PM,33.8,30.2,87,29.80,5.0,WNW,10.4,-,0.00,,Overcast,290,2013-01-28 01:19:00
4:30 PM,33.8,30.2,87,29.80,10.0,NNW,6.9,-,0.00,,Overcast,330,2013-01-28 01:30:00
4:53 PM,30.9,30.0,96,29.79,10.0,Calm,Calm,-,0.00,,Mostly Cloudy,0,2013-01-28 01:53:00
5:17 PM,32.0,30.2,93,29.80,2.5,Calm,Calm,-,0.00,Snow,Light Snow,0,2013-01-28 02:17:00
5:28 PM,33.8,30.2,87,29.79,9.0,Calm,Calm,-,0.00,,Overcast,0,2013-01-28 02:28:00
5:53 PM,34.0,30.0,85,29.80,8.0,WNW,18.4,-,0.00,Snow,Light Snow,300,2013-01-28 02:53:00
6:53 PM,36.0,28.0,73,29.78,10.0,West,15.0,-,0.00,,Overcast,280,2013-01-28 03:53:00
7:53 PM,36.0,27.0,70,29.78,6.0,WSW,18.4,26.5,0.01,Snow,Light Snow,240,2013-01-28 04:53:00
8:46 PM,33.8,28.4,81,29.78,1.8,WSW,16.1,29.9,0.00,Snow,Light Snow,240,2013-01-28 05:46:00
8:53 PM,33.1,28.9,85,29.78,1.8,WSW,11.5,23.0,0.00,Snow,Light Snow,250,2013-01-28 05:53:00
8:56 PM,33.8,28.4,81,29.78,3.0,West,12.7,-,0.00,Snow,Light Snow,260,2013-01-28 05:56:00
9:53 PM,36.0,27.0,70,29.77,10.0,West,17.3,24.2,0.00,,Mostly Cloudy,260,2013-01-28 06:53:00
10:53 PM,35.1,28.0,76,29.75,10.0,NW,12.7,-,N/A,,Mostly Cloudy,310,2013-01-28 07:53:00
11:38 PM,35.6,30.2,81,29.75,10.0,SW,21.9,28.8,N/A,,Overcast,230,2013-01-28 08:38:00
11:53 PM,36.0,28.9,76,29.75,10.0,WSW,17.3,-,N/A,,Overcast,240,2013-01-28 08:53:00